Location: Newark
(15.4608°S, 41.1635°W)
Time: 20:45:28
(UTC+00:00)

Explorer 11/Cluster Stage 4 - Pass Details

Date: 10 August 2021
Orbit: 467 x 1256 km, 28.8° (Epoch: 24 September)

Event Time Altitude Azimuth Distance (km) Brightness Sun altitude
Rises 22:39:32 0° 236° (SW) 3,157 10.3 -29.9°
Reaches altitude 10° 22:42:57 10° 216° (SW) 2,067 9.0 -30.7°
Enters shadow 22:43:41 12° 209° (SSW) 1,879 8.7 -30.9°
